Вернуться в каталог

COSMOS 1285 DEB

LostHEO
NORAD 25840·DEBRIS·🇷🇺 Russia

Запущен Aug 4, 1981 с Plesetsk Cosmodrome

Loading…

Ближайшие Пролёты (ближайшие 24 часа)

TLE

УстаревшееSource: Space-Track

Эпоха: Aug 15, 2025, 03:24 UTC

1 25840U 81071J   25227.14199434  .00000284  00000-0  00000+0 0  9992
2 25840  69.0875 104.2055 5948401 351.7832 214.4942  1.98031257203011

Отслеживайте COSMOS 1285 DEB в реальном времени с AllMySat

Download on the App Store